Left ArrowRight Arrow

40.97296, -117.73568

Hourly Observations for March 2, 2018

Temp ( °F °C ) Dew Point ( °F °C ) Humidity (%) Winds ( mph kmh ) Pressure ( in mb ) Visibility ( mi km ) Precip ( " mm )
4:40 am 04:40 Cloudy 30 -1 21 -6 69 69 WSW 13 20 29.80 1009 10 16 0.00 0.00
4:56 am 04:56 Cloudy 31 -0.6 20 -6.7 64 64 WSW 23 37 29.67 1005 10 16 0.00 0.03
5:56 am 05:56 Cloudy 31 -0.6 19 -7.2 61 61 SW 17 28 29.71 1006 10 16 0.00 0.00
6:56 am 06:56 Mostly Cloudy 30 -1.1 17 -8.3 58 58 WSW 13 20 29.78 1009 10 16 0.00 0.00
7:56 am 07:56 Mostly Sunny 30 -1.1 16 -8.9 56 56 SW 14 22 29.81 1009 10 16 0.00 0.00
8:56 am 08:56 Sunny 32 0 14 -10 47 47 SW 16 26 29.81 1010 10 16 0.00 0.00
9:56 am 09:56 Sunny 34 1.1 13 -10.6 42 42 SW 12 19 29.81 1010 10 16 0.00 0.00
10:56 am 10:56 Mostly Cloudy 35 1.7 12 -11.1 38 38 S 6 9 29.82 1010 10 16 0.00 0.00
11:56 am 11:56 Cloudy 36 2.2 14 -10 40 40 S 9 15 29.83 1010 10 16 0.00 0.00
12:56 pm 12:56 Cloudy 37 2.8 16 -8.9 42 42 SSE 13 20 29.83 1010 10 16 0.00 0.00
1:56 pm 13:56 Cloudy 36 2.2 13 -10.6 39 39 SSE 13 20 29.81 1010 10 16 0.00 0.00
2:56 pm 14:56 Cloudy 35 1.7 14 -10 42 42 SSE 14 22 29.84 1010 10 16 0.00 0.00
3:56 pm 15:56 Mostly Cloudy 32 0 19 -7.2 59 59 S 16 26 29.85 1011 10 16 0.00 0.00
4:56 pm 16:56 Cloudy 31 -0.6 20 -6.7 64 64 S 14 22 29.86 1011 10 16 0.00 0.00
5:56 pm 17:56 Cloudy 31 -0.6 21 -6.1 67 67 S 8 13 29.87 1012 10 16 0.00 0.00
6:56 pm 18:56 Cloudy 31 -0.6 19 -7.2 61 61 SSE 14 22 29.84 1010 10 16 0.00 0.00
7:56 pm 19:56 Cloudy 30 -1.1 20 -6.7 66 66 S 13 20 29.85 1011 10 16 0.00 0.00
8:56 pm 20:56 Cloudy 29 -1.7 22 -5.6 75 75 SSE 12 19 29.80 1009 10 16 0.00 0.03
9:56 pm 21:56 Cloudy 29 -1.7 22 -5.6 75 75 S 12 19 29.81 1010 10 16 0.00 0.00
10:11 pm 22:11 Cloudy with Light Snow 29 -1.7 23 -5 78 78 SSW 9 15 29.94 1014 2 3 0.00 0.03
10:15 pm 22:15 Cloudy with Light Snow 28 -2 23 -5 80 80 SW 6 9 29.94 1014 1 2 0.00 0.00
10:23 pm 22:23 Cloudy with Light Snow 28 -2.2 24 -4.4 85 85 SW 5 7 29.94 1014 1 2 0.00 0.03
10:28 pm 22:28 Cloudy with Light Snow 28 -2.2 24 -4.4 85 85 SW 5 7 29.94 1014 1 1 0.01 0.25
10:40 pm 22:40 Mostly Cloudy with Snow 28 -2 25 -4 86 86 Calm 29.91 1013 1 1 0.00 0.00
10:56 pm 22:56 Mostly Cloudy with Light Snow 28 -2.2 25 -3.9 88 88 SE 3 6 29.80 1009 1 1 0.04 1.02
11:00 pm 23:00 Mostly Cloudy with Light Snow 28 -2 25 -4 86 86 SE 5 7 29.91 1013 1 2 0.00 0.00
11:09 pm 23:09 Cloudy with Light Snow 28 -2 25 -4 86 86 ESE 5 7 29.91 1013 1 2 0.00 0.00
11:37 pm 23:37 Cloudy with Light Snow 28 -2.2 25 -3.9 88 88 Calm 29.91 1013 1 2 0.03 0.76
11:56 pm 23:56 Cloudy with Light Snow 28 -2.2 25 -3.9 88 88 Calm 29.81 1009 1 2 0.04 1.02

Powered by Vaisala Xweather